Petersburg, AK

8:35 AM AKDT on May 22, 2018 (GMT -0800)
Johnson Petersburg

Weather History for PAPG - June, 2014

Change the Weather History Date:

Friday, June 6, 2014

  Actual Average Record
Temperature  
Mean Temperature 54 °F -  
Max Temperature 66 °F 56 °F 74 °F (1988)
Min Temperature 41 °F 44 °F 37 °F (2008)
Degree Days  
Heating Degree Days 12    
Growing Degree Days 4 (Base 50)    
Moisture  
Dew Point 40 °F    
Average Humidity 57    
Maximum Humidity 87    
Minimum Humidity 35    
Precipitation  
Precipitation 0.00 in - - ()
Sea Level Pressure  
Sea Level Pressure 30.10 in    
Wind  
Wind Speed 3 mph (ENE)    
Max Wind Speed 9 mph    
Max Gust Speed -    
Visibility 10 miles    
Events      
Averages and records for this station are not official NWS values.
T = Trace of Precipitation, MM = Missing Value Source: NWS Daily Summary

Daily Weather History Graph

Daily Weather History Graph

Search for Another Location

Airport or City:

Astronomy

Jun. 06, 2014 Rise Set
Actual Time 4:03 AM AKDT 9:38 PM AKDT
Civil Twilight 2:59 AM AKDT 10:42 PM AKDT
Nautical Twilight 1:22 AM AKDT 12:18 AM AKDT
Astronomical Twilight Sun does not set Sun does not set
Moon 1:48 PM AKDT (6/6) 1:19 AM AKDT (6/6)
Length of Visible Light 19h 42m
Length of Day
17h 35m
First Quarter, 59% of the Moon is Illuminated
Jun 6
First Quarter
Jun 12
Full
Jun 19
Last Quarter
Jun 27
New
Jul 5
First Quarter

Hourly Weather History & Observations

Time (AKDT) Temp. Windchill Dew Point Humidity Pressure Visibility Wind Dir Wind Speed Gust Speed Precip Events Conditions
12:16 AM 48.2 °F - 39.2 °F 71% 30.17 in 10.0 mi Calm Calm - N/A   Clear
12:56 AM 46.4 °F 45.2 °F 39.2 °F 76% 30.17 in 10.0 mi SSW 3.5 mph - N/A   Clear
1:16 AM 46.4 °F - 39.2 °F 76% 30.17 in 10.0 mi Calm Calm - N/A   Clear
1:36 AM 44.6 °F - 39.2 °F 81% 30.17 in 10.0 mi Calm Calm - N/A   Clear
2:16 AM 44.6 °F 43.1 °F 39.2 °F 81% 30.16 in 10.0 mi SW 3.5 mph - N/A   Clear
2:36 AM 46.4 °F - 39.2 °F 76% 30.17 in 10.0 mi Calm Calm - N/A   Clear
2:56 AM 44.6 °F 42.2 °F 39.2 °F 81% 30.16 in 10.0 mi WSW 4.6 mph - N/A   Clear
3:16 AM 44.6 °F 43.1 °F 39.2 °F 81% 30.16 in 10.0 mi WSW 3.5 mph - N/A   Clear
3:36 AM 46.4 °F - 39.2 °F 76% 30.16 in 10.0 mi Calm Calm - N/A   Clear
4:16 AM 42.8 °F - 37.4 °F 81% 30.16 in 10.0 mi Calm Calm - N/A   Clear
4:36 AM 42.8 °F - 39.2 °F 87% 30.16 in 10.0 mi Calm Calm - N/A   Clear
4:56 AM 41.0 °F 39.0 °F 37.4 °F 87% 30.16 in 10.0 mi WSW 3.5 mph - N/A   Clear
5:56 AM 44.6 °F - 41.0 °F 87% 30.15 in 10.0 mi Calm Calm - N/A   Clear
6:16 AM 46.4 °F - 42.8 °F 87% 30.15 in 10.0 mi Calm Calm - N/A   Clear
7:56 AM 51.8 °F - 42.8 °F 71% 30.14 in 10.0 mi ENE 4.6 mph - N/A   Clear
8:16 AM 53.6 °F - 44.6 °F 72% 30.14 in 10.0 mi ENE 4.6 mph - N/A   Clear
8:36 AM 53.6 °F - 42.8 °F 67% 30.14 in 10.0 mi ENE 5.8 mph - N/A   Clear
8:55 AM 53.6 °F - 42.8 °F 67% 30.14 in 10.0 mi NNE 5.8 mph - N/A   Partly Cloudy
9:36 AM 55.4 °F - 41.0 °F 58% 30.14 in 10.0 mi ENE 5.8 mph - N/A   Partly Cloudy
9:56 AM 57.2 °F - 42.8 °F 59% 30.13 in 10.0 mi ENE 5.8 mph - N/A   Scattered Clouds
10:16 AM 57.2 °F - 42.8 °F 59% 30.13 in 10.0 mi ENE 5.8 mph - N/A   Scattered Clouds
11:36 AM 60.8 °F - 42.8 °F 52% 30.12 in 10.0 mi ENE 8.1 mph - N/A   Scattered Clouds
12:16 PM 62.6 °F - 42.8 °F 48% 30.11 in 10.0 mi ENE 8.1 mph - N/A   Scattered Clouds
12:36 PM 62.6 °F - 41.0 °F 45% 30.11 in 10.0 mi ENE 9.2 mph - N/A   Scattered Clouds
12:55 PM 64.4 °F - 39.2 °F 40% 30.11 in 10.0 mi NNE 9.2 mph - N/A   Scattered Clouds
1:16 PM 64.4 °F - 39.2 °F 40% 30.10 in 10.0 mi ENE 8.1 mph - N/A   Scattered Clouds
1:36 PM 64.4 °F - 39.2 °F 40% 30.10 in 10.0 mi ENE 9.2 mph - N/A   Scattered Clouds
1:55 PM 64.4 °F - 39.2 °F 40% 30.10 in 10.0 mi NE 6.9 mph - N/A   Scattered Clouds
2:36 PM 64.4 °F - 39.2 °F 40% 30.09 in 10.0 mi ENE 8.1 mph - N/A   Scattered Clouds
2:56 PM 64.4 °F - 41.0 °F 42% 30.08 in 10.0 mi NE 6.9 mph - N/A   Scattered Clouds
3:16 PM 64.4 °F - 39.2 °F 40% 30.08 in 10.0 mi NE 8.1 mph - N/A   Scattered Clouds
3:56 PM 66.2 °F - 41.0 °F 40% 30.07 in 10.0 mi NE 6.9 mph - N/A   Scattered Clouds
4:16 PM 66.2 °F - 42.8 °F 43% 30.06 in 10.0 mi NE 6.9 mph - N/A   Scattered Clouds
4:36 PM 64.4 °F - 42.8 °F 45% 30.05 in 10.0 mi NE 8.1 mph - N/A   Scattered Clouds
4:56 PM 66.2 °F - 42.8 °F 43% 30.05 in 10.0 mi NE 5.8 mph - N/A   Partly Cloudy
5:16 PM 66.2 °F - 41.0 °F 40% 30.05 in 10.0 mi NE 4.6 mph - N/A   Partly Cloudy
5:36 PM 66.2 °F - 39.2 °F 37% 30.05 in 10.0 mi East 8.1 mph - N/A   Partly Cloudy
5:56 PM 66.2 °F - 37.4 °F 35% 30.04 in 10.0 mi ENE 6.9 mph - N/A   Scattered Clouds
6:16 PM 66.2 °F - 37.4 °F 35% 30.04 in 10.0 mi NE 6.9 mph - N/A   Scattered Clouds
6:36 PM 66.2 °F - 37.4 °F 35% 30.03 in 10.0 mi NE 6.9 mph - N/A   Scattered Clouds
6:56 PM 66.2 °F - 39.2 °F 37% 30.03 in 10.0 mi NNE 6.9 mph - N/A   Scattered Clouds
7:36 PM 64.4 °F - 37.4 °F 37% 30.03 in 10.0 mi NNE 3.5 mph - N/A   Scattered Clouds
8:16 PM 60.8 °F - 37.4 °F 42% 30.03 in 10.0 mi Calm Calm - N/A   Scattered Clouds
8:36 PM 59.0 °F - 39.2 °F 48% 30.03 in 10.0 mi SSE 4.6 mph - N/A   Scattered Clouds
8:56 PM 57.2 °F - 39.2 °F 51% 30.03 in 10.0 mi ESE 4.6 mph - N/A   Scattered Clouds
9:36 PM 55.4 °F - 39.2 °F 54% 30.04 in 10.0 mi Calm Calm - N/A   Scattered Clouds
9:56 PM 57.2 °F - 39.2 °F 51% 30.04 in 10.0 mi East 3.5 mph - N/A   Scattered Clouds
10:16 PM 53.6 °F - 39.2 °F 58% 30.04 in 10.0 mi Calm Calm - N/A   Clear
11:36 PM 50.0 °F - 39.2 °F 66% 30.05 in 10.0 mi SSW 3.5 mph - N/A   Clear